UAL739 KLAX-KSFO

Flight info

Callsign UAL739
Flight time N/A
Altitude 38000
Route SUMMR2 STOKD SERFR SERFR4
Aircraft A319/M-SDE3FGHIRWY/LB1

Departure

Time 2026-04-20 19:50
Airport Los Angeles International Airport (KLAX)

Arrival

Time N/A
Airport San Francisco International Airport (KSFO)
Time Latitude Longitude Altitude Speed Heading
2026-04-20 19:16 33.94157 -118.40022 126 ft 0 kts 96°
2026-04-20 19:39 33.94159 -118.40042 121 ft 3 kts 96°
2026-04-20 19:39 33.94161 -118.40065 124 ft 3 kts 96°
2026-04-20 19:39 33.94163 -118.40087 125 ft 3 kts 96°
2026-04-20 19:40 33.94166 -118.40109 125 ft 3 kts 96°
2026-04-20 19:40 33.94167 -118.40127 126 ft 0 kts 96°
2026-04-20 19:40 33.94167 -118.40121 126 ft 2 kts 96°
2026-04-20 19:40 33.94165 -118.40107 125 ft 0 kts 96°
2026-04-20 19:43 33.94165 -118.40106 125 ft 1 kts 100°
2026-04-20 19:43 33.94146 -118.40090 123 ft 7 kts 154°
2026-04-20 19:43 33.94077 -118.40074 124 ft 13 kts 173°
2026-04-20 19:44 33.93977 -118.40060 124 ft 13 kts 173°
2026-04-20 19:44 33.93891 -118.40016 124 ft 15 kts 123°
2026-04-20 19:44 33.93890 -118.39887 126 ft 16 kts 83°
2026-04-20 19:44 33.93905 -118.39739 126 ft 19 kts 83°
2026-04-20 19:45 33.93922 -118.39570 126 ft 22 kts 84°
2026-04-20 19:45 33.93941 -118.39383 121 ft 24 kts 81°
2026-04-20 19:45 33.93962 -118.39173 126 ft 26 kts 85°
2026-04-20 19:45 33.93979 -118.39002 126 ft 15 kts 81°
2026-04-20 19:46 33.93994 -118.38867 126 ft 18 kts 83°
2026-04-20 19:46 33.94011 -118.38710 126 ft 20 kts 81°
2026-04-20 19:46 33.94029 -118.38532 126 ft 22 kts 84°
2026-04-20 19:46 33.94047 -118.38390 125 ft 12 kts 82°
2026-04-20 19:47 33.94046 -118.38358 126 ft 3 kts 90°
2026-04-20 19:47 33.94051 -118.38314 126 ft 8 kts 83°
2026-04-20 19:47 33.94061 -118.38210 126 ft 17 kts 83°
2026-04-20 19:48 33.94075 -118.38072 126 ft 11 kts 82°
2026-04-20 19:48 33.94074 -118.38034 126 ft 0 kts 107°
2026-04-20 19:48 33.94074 -118.38033 126 ft 0 kts 107°
2026-04-20 19:48 33.94071 -118.38027 126 ft 2 kts 121°
2026-04-20 19:49 33.94066 -118.38019 122 ft 5 kts 131°
2026-04-20 19:49 33.93991 -118.38015 126 ft 18 kts 227°
2026-04-20 19:49 33.93977 -118.38107 126 ft 0 kts 266°
2026-04-20 19:49 33.93974 -118.38142 126 ft 23 kts 262°
2026-04-20 19:50 33.93926 -118.38606 126 ft 87 kts 263°
2026-04-20 19:50 33.93824 -118.39563 124 ft 141 kts 262°
2026-04-20 19:50 33.93684 -118.40870 404 ft 166 kts 261°
2026-04-20 19:50 33.93521 -118.42296 989 ft 176 kts 261°
2026-04-20 19:51 33.93414 -118.43766 1787 ft 181 kts 265°
2026-04-20 19:51 33.93344 -118.45315 2423 ft 192 kts 264°
2026-04-20 19:51 33.93197 -118.47013 2847 ft 216 kts 262°
2026-04-20 19:51 33.93008 -118.48911 3348 ft 240 kts 262°
2026-04-20 19:52 33.92802 -118.51011 3909 ft 263 kts 263°
2026-04-20 19:52 33.92592 -118.53245 4670 ft 273 kts 262°
2026-04-20 19:52 33.92391 -118.55509 5278 ft 273 kts 263°
2026-04-20 19:52 33.92194 -118.57785 5899 ft 274 kts 261°
2026-04-20 19:53 33.91999 -118.60077 6525 ft 276 kts 262°
2026-04-20 19:53 33.91805 -118.62387 7121 ft 278 kts 263°
2026-04-20 19:53 33.91767 -118.64728 7728 ft 281 kts 268°
2026-04-20 19:53 33.91763 -118.67088 8365 ft 282 kts 267°
2026-04-20 19:54 33.91755 -118.69455 8997 ft 284 kts 267°
2026-04-20 19:54 33.91745 -118.71838 9637 ft 286 kts 266°
2026-04-20 19:54 33.91733 -118.74245 10260 ft 292 kts 266°
2026-04-20 19:54 33.91718 -118.76734 10862 ft 303 kts 266°
2026-04-20 19:55 33.91702 -118.79313 11477 ft 313 kts 266°
2026-04-20 19:55 33.91685 -118.81986 11890 ft 325 kts 266°
2026-04-20 19:55 33.91684 -118.84729 11989 ft 329 kts 267°
2026-04-20 19:55 33.91746 -118.87489 12008 ft 330 kts 269°
2026-04-20 19:56 33.91807 -118.89315 12003 ft 330 kts 269°
2026-04-20 19:56 33.91946 -118.93009 12006 ft 330 kts 269°
2026-04-20 19:56 33.92048 -118.95769 12020 ft 330 kts 269°
2026-04-20 19:56 33.92285 -118.98522 12010 ft 333 kts 278°
2026-04-20 19:57 33.93026 -119.01173 12005 ft 337 kts 292°
2026-04-20 19:57 33.94281 -119.03577 12004 ft 342 kts 306°
2026-04-20 19:57 33.95987 -119.05597 12011 ft 346 kts 316°
2026-04-20 19:57 33.97809 -119.07486 12024 ft 346 kts 316°
2026-04-20 19:58 33.99629 -119.09381 12025 ft 346 kts 316°
2026-04-20 19:58 34.01444 -119.11285 12027 ft 346 kts 316°
2026-04-20 19:58 34.03254 -119.13191 12028 ft 346 kts 316°
2026-04-20 19:58 34.05064 -119.15098 12026 ft 346 kts 315°
2026-04-20 19:59 34.06877 -119.17009 12031 ft 346 kts 315°
2026-04-20 19:59 34.08690 -119.18921 12028 ft 346 kts 315°
2026-04-20 19:59 34.10501 -119.20835 12028 ft 346 kts 315°
2026-04-20 19:59 34.12314 -119.22746 12018 ft 346 kts 315°
2026-04-20 20:00 34.14125 -119.24655 12017 ft 346 kts 315°
2026-04-20 20:00 34.15937 -119.26566 12022 ft 345 kts 315°
2026-04-20 20:00 34.17746 -119.28474 12019 ft 345 kts 315°
2026-04-20 20:00 34.19529 -119.30358 12019 ft 345 kts 315°
2026-04-20 20:01 34.21358 -119.32294 12020 ft 345 kts 315°
2026-04-20 20:01 34.23104 -119.34143 12013 ft 345 kts 315°
2026-04-20 20:01 34.24912 -119.36057 12015 ft 346 kts 315°
2026-04-20 20:01 34.26721 -119.37970 12013 ft 346 kts 315°
2026-04-20 20:02 34.28531 -119.39884 12011 ft 346 kts 315°
2026-04-20 20:02 34.30339 -119.41800 12009 ft 346 kts 315°
2026-04-20 20:02 34.32146 -119.43717 12007 ft 346 kts 315°
2026-04-20 20:02 34.33952 -119.45635 12001 ft 346 kts 315°
2026-04-20 20:03 34.35759 -119.47553 12001 ft 346 kts 315°
2026-04-20 20:03 34.37567 -119.49472 12005 ft 346 kts 315°
2026-04-20 20:03 34.39372 -119.51392 12006 ft 346 kts 315°
2026-04-20 20:03 34.41177 -119.53319 12003 ft 346 kts 314°
2026-04-20 20:04 34.42945 -119.55297 12002 ft 345 kts 312°
2026-04-20 20:04 34.44672 -119.57317 12004 ft 345 kts 311°
2026-04-20 20:04 34.46389 -119.59369 12268 ft 349 kts 311°
2026-04-20 20:04 34.48113 -119.61442 13084 ft 351 kts 311°
2026-04-20 20:05 34.49857 -119.63533 13828 ft 355 kts 310°
2026-04-20 20:05 34.51629 -119.65647 14504 ft 359 kts 310°
2026-04-20 20:05 34.53430 -119.67784 15180 ft 364 kts 310°
2026-04-20 20:05 34.55247 -119.69934 15905 ft 366 kts 310°
2026-04-20 20:06 34.57078 -119.72098 16535 ft 370 kts 310°
2026-04-20 20:06 34.58929 -119.74283 17205 ft 373 kts 310°
2026-04-20 20:06 34.60796 -119.76492 17887 ft 377 kts 310°
2026-04-20 20:06 34.62685 -119.78727 18436 ft 381 kts 310°
2026-04-20 20:07 34.64589 -119.80980 19049 ft 383 kts 310°
2026-04-20 20:07 34.66508 -119.83251 19655 ft 387 kts 309°
2026-04-20 20:07 34.67785 -119.84766 20040 ft 389 kts 309°
2026-04-20 20:07 34.69727 -119.87075 20645 ft 392 kts 309°
2026-04-20 20:08 34.71681 -119.89403 21239 ft 395 kts 309°
2026-04-20 20:08 34.73641 -119.91739 21833 ft 398 kts 309°
2026-04-20 20:08 34.75635 -119.94116 22422 ft 401 kts 309°
2026-04-20 20:08 34.77635 -119.96500 22971 ft 404 kts 309°
2026-04-20 20:09 34.79653 -119.98901 23477 ft 408 kts 309°
2026-04-20 20:09 34.81687 -120.01324 23965 ft 411 kts 309°
2026-04-20 20:09 34.83244 -120.03184 24291 ft 411 kts 308°
2026-04-20 20:09 34.85176 -120.05615 24621 ft 415 kts 309°
2026-04-20 20:10 34.87120 -120.07977 25094 ft 418 kts 310°
2026-04-20 20:10 34.88999 -120.10139 25498 ft 421 kts 311°
2026-04-20 20:10 34.91130 -120.12589 25968 ft 423 kts 311°
2026-04-20 20:10 34.93252 -120.15085 26401 ft 425 kts 310°
2026-04-20 20:11 34.95369 -120.17619 26846 ft 428 kts 310°
2026-04-20 20:11 34.97488 -120.20180 27278 ft 430 kts 310°
2026-04-20 20:11 34.99618 -120.22758 27694 ft 433 kts 310°
2026-04-20 20:11 35.01766 -120.25351 28106 ft 436 kts 310°
2026-04-20 20:12 35.03929 -120.27959 28528 ft 438 kts 310°
2026-04-20 20:12 35.06103 -120.30580 28957 ft 441 kts 311°
2026-04-20 20:12 35.08293 -120.33217 29375 ft 444 kts 311°
2026-04-20 20:13 35.12682 -120.38510 30155 ft 449 kts 311°
2026-04-20 20:13 35.14913 -120.41198 30499 ft 452 kts 311°
2026-04-20 20:13 35.17158 -120.43902 30825 ft 454 kts 311°
2026-04-20 20:13 35.19413 -120.46625 31148 ft 457 kts 311°
2026-04-20 20:14 35.21679 -120.49364 31467 ft 459 kts 311°
2026-04-20 20:14 35.23950 -120.52116 31792 ft 461 kts 310°
2026-04-20 20:14 35.26226 -120.54879 32227 ft 461 kts 310°
2026-04-20 20:14 35.28501 -120.57643 32681 ft 460 kts 310°
2026-04-20 20:15 35.30799 -120.60433 33126 ft 459 kts 310°
2026-04-20 20:15 35.33064 -120.63187 33578 ft 458 kts 310°
2026-04-20 20:15 35.35325 -120.65939 34027 ft 458 kts 310°
2026-04-20 20:15 35.37585 -120.68686 34437 ft 457 kts 310°
2026-04-20 20:16 35.39839 -120.71429 34811 ft 456 kts 310°
2026-04-20 20:16 35.42059 -120.74134 35030 ft 456 kts 310°
2026-04-20 20:16 35.46493 -120.79541 35083 ft 444 kts 310°
2026-04-20 20:17 35.51200 -120.84469 35082 ft 447 kts 319°
2026-04-20 20:17 35.56157 -120.89059 35080 ft 447 kts 319°
2026-04-20 20:18 35.61121 -120.93656 35078 ft 447 kts 319°
2026-04-20 20:18 35.66124 -120.98206 35073 ft 451 kts 323°
2026-04-20 20:19 35.71211 -121.02643 35072 ft 446 kts 317°
2026-04-20 20:19 35.75713 -121.07085 35066 ft 445 kts 316°
2026-04-20 20:20 35.80566 -121.11827 35068 ft 446 kts 317°
2026-04-20 20:20 35.85507 -121.16469 35060 ft 448 kts 318°
2026-04-20 20:21 35.90553 -121.21159 35054 ft 458 kts 318°
2026-04-20 20:21 35.95647 -121.25926 35048 ft 461 kts 318°
2026-04-20 20:22 36.00709 -121.30678 34696 ft 449 kts 318°
2026-04-20 20:22 36.03179 -121.32997 34103 ft 443 kts 318°
2026-04-20 20:22 36.05613 -121.35287 33393 ft 437 kts 317°
2026-04-20 20:23 36.08097 -121.37437 32667 ft 435 kts 322°
2026-04-20 20:23 36.10643 -121.39431 31947 ft 431 kts 322°
2026-04-20 20:23 36.13166 -121.41400 31294 ft 427 kts 322°
2026-04-20 20:23 36.15671 -121.43350 30637 ft 423 kts 322°
2026-04-20 20:24 36.18145 -121.45275 29953 ft 419 kts 322°
2026-04-20 20:24 36.20597 -121.47185 29199 ft 415 kts 322°
2026-04-20 20:24 36.22995 -121.49057 28379 ft 413 kts 321°
2026-04-20 20:24 36.25486 -121.51014 27030 ft 424 kts 321°
2026-04-20 20:25 36.27997 -121.52997 25824 ft 432 kts 321°
2026-04-20 20:25 36.30532 -121.54992 24959 ft 431 kts 321°
2026-04-20 20:25 36.33054 -121.56967 24211 ft 427 kts 320°
2026-04-20 20:25 36.35556 -121.58921 23426 ft 423 kts 320°
2026-04-20 20:26 36.38036 -121.60861 22507 ft 419 kts 321°
2026-04-20 20:26 36.40458 -121.62756 21687 ft 415 kts 320°
2026-04-20 20:26 36.42882 -121.64653 20891 ft 409 kts 321°
2026-04-20 20:26 36.45279 -121.66535 20272 ft 406 kts 321°
2026-04-20 20:27 36.47696 -121.68446 20068 ft 407 kts 320°
2026-04-20 20:27 36.50076 -121.70334 19995 ft 406 kts 320°
2026-04-20 20:27 36.52461 -121.72224 19967 ft 407 kts 320°
2026-04-20 20:27 36.54847 -121.74110 19717 ft 406 kts 321°
2026-04-20 20:28 36.57227 -121.75992 19472 ft 404 kts 321°
2026-04-20 20:28 36.59597 -121.77868 19235 ft 403 kts 321°
2026-04-20 20:28 36.61926 -121.79713 19005 ft 402 kts 321°
2026-04-20 20:28 36.64276 -121.81570 18795 ft 399 kts 320°
2026-04-20 20:29 36.66615 -121.83417 18559 ft 398 kts 320°
2026-04-20 20:29 36.68944 -121.85262 18336 ft 396 kts 320°
2026-04-20 20:29 36.71263 -121.87108 18084 ft 395 kts 320°
2026-04-20 20:29 36.73572 -121.88957 17854 ft 392 kts 319°
2026-04-20 20:30 36.75691 -121.91026 17588 ft 385 kts 312°
2026-04-20 20:30 36.77733 -121.93185 17334 ft 384 kts 313°
2026-04-20 20:30 36.79767 -121.95318 17021 ft 380 kts 313°
2026-04-20 20:30 36.81757 -121.97384 16870 ft 362 kts 313°
2026-04-20 20:31 36.83645 -121.99334 16570 ft 345 kts 313°
2026-04-20 20:31 36.85470 -122.01236 16019 ft 339 kts 313°
2026-04-20 20:31 36.87259 -122.03123 15412 ft 335 kts 313°
2026-04-20 20:31 36.89029 -122.04997 14817 ft 332 kts 313°
2026-04-20 20:32 36.90787 -122.06859 14224 ft 330 kts 314°
2026-04-20 20:32 36.92533 -122.08708 13629 ft 329 kts 314°
2026-04-20 20:32 36.94270 -122.10545 12997 ft 327 kts 314°
2026-04-20 20:32 36.95996 -122.12372 12416 ft 323 kts 314°
2026-04-20 20:33 36.97702 -122.14175 11844 ft 319 kts 314°
2026-04-20 20:33 36.99391 -122.15961 11294 ft 316 kts 314°
2026-04-20 20:33 37.01064 -122.17728 11052 ft 315 kts 314°
2026-04-20 20:33 37.02737 -122.19493 11016 ft 315 kts 314°
2026-04-20 20:34 37.04412 -122.21262 11029 ft 315 kts 314°
2026-04-20 20:34 37.06089 -122.23038 11026 ft 316 kts 314°
2026-04-20 20:34 37.07765 -122.24817 11015 ft 316 kts 314°
2026-04-20 20:34 37.09442 -122.26600 11017 ft 316 kts 314°
2026-04-20 20:35 37.11121 -122.28378 11017 ft 316 kts 314°
2026-04-20 20:35 37.12796 -122.30162 10936 ft 316 kts 313°
2026-04-20 20:35 37.14427 -122.31931 10795 ft 304 kts 313°
2026-04-20 20:35 37.15991 -122.33647 10671 ft 293 kts 313°
2026-04-20 20:36 37.17486 -122.35295 10559 ft 280 kts 312°
2026-04-20 20:36 37.18921 -122.36877 10396 ft 270 kts 311°
2026-04-20 20:36 37.20316 -122.38424 10096 ft 267 kts 311°
2026-04-20 20:36 37.21699 -122.39960 9739 ft 265 kts 311°
2026-04-20 20:37 37.23078 -122.41483 9487 ft 264 kts 311°
2026-04-20 20:37 37.24453 -122.43001 9273 ft 263 kts 311°
2026-04-20 20:37 37.25809 -122.44494 9093 ft 262 kts 311°
2026-04-20 20:37 37.27194 -122.46019 8887 ft 261 kts 311°
2026-04-20 20:38 37.28561 -122.47520 8711 ft 260 kts 311°
2026-04-20 20:38 37.29900 -122.48995 8522 ft 259 kts 311°
2026-04-20 20:38 37.31248 -122.50486 8346 ft 258 kts 311°
2026-04-20 20:38 37.32613 -122.51999 8154 ft 257 kts 312°
2026-04-20 20:39 37.33935 -122.53458 7976 ft 256 kts 312°
2026-04-20 20:39 37.35272 -122.54932 7793 ft 255 kts 312°
2026-04-20 20:39 37.36604 -122.56406 7610 ft 255 kts 312°
2026-04-20 20:39 37.37934 -122.57879 7424 ft 254 kts 312°
2026-04-20 20:40 37.39254 -122.59344 7241 ft 253 kts 312°
2026-04-20 20:40 37.40571 -122.60804 7058 ft 252 kts 312°
2026-04-20 20:40 37.41888 -122.62264 6897 ft 252 kts 311°
2026-04-20 20:40 37.43200 -122.63717 6707 ft 251 kts 312°
2026-04-20 20:41 37.44504 -122.65159 6523 ft 249 kts 312°
2026-04-20 20:41 37.45802 -122.66600 6406 ft 249 kts 311°
2026-04-20 20:41 37.47110 -122.68026 6294 ft 250 kts 316°
2026-04-20 20:41 37.48557 -122.69266 6190 ft 252 kts 321°
2026-04-20 20:42 37.49990 -122.70506 6078 ft 248 kts 315°
2026-04-20 20:42 37.51466 -122.71658 6003 ft 255 kts 338°
2026-04-20 20:42 37.53234 -122.72054 6011 ft 260 kts 351°
2026-04-20 20:42 37.55043 -122.72255 6010 ft 261 kts 353°
2026-04-20 20:43 37.56847 -122.72448 6012 ft 260 kts 353°
2026-04-20 20:43 37.58648 -122.72647 6010 ft 260 kts 353°
2026-04-20 20:43 37.60451 -122.72834 6013 ft 260 kts 353°
2026-04-20 20:43 37.62244 -122.73022 6008 ft 258 kts 353°
2026-04-20 20:44 37.64035 -122.73203 5858 ft 258 kts 353°
2026-04-20 20:44 37.65825 -122.73380 5528 ft 257 kts 353°
2026-04-20 20:44 37.67603 -122.73550 5230 ft 255 kts 353°
2026-04-20 20:44 37.69371 -122.73710 4926 ft 255 kts 353°
2026-04-20 20:45 37.71133 -122.73871 4631 ft 253 kts 353°
2026-04-20 20:45 37.72888 -122.73850 4301 ft 254 kts 11°
2026-04-20 20:45 37.74485 -122.72955 4028 ft 251 kts 40°
2026-04-20 20:45 37.75588 -122.71314 3767 ft 242 kts 70°
2026-04-20 20:46 37.76020 -122.69333 3464 ft 230 kts 95°
2026-04-20 20:46 37.75795 -122.67397 3158 ft 218 kts 120°
2026-04-20 20:46 37.75111 -122.65733 3004 ft 213 kts 129°
2026-04-20 20:46 37.74390 -122.64100 3003 ft 213 kts 128°
2026-04-20 20:47 37.73673 -122.62458 3002 ft 213 kts 128°
2026-04-20 20:47 37.72965 -122.60822 2943 ft 210 kts 128°
2026-04-20 20:47 37.72260 -122.59251 2808 ft 200 kts 129°
2026-04-20 20:47 37.71566 -122.57761 2570 ft 194 kts 130°
2026-04-20 20:48 37.70879 -122.56311 2299 ft 191 kts 130°
2026-04-20 20:48 37.70200 -122.54882 2009 ft 189 kts 129°
2026-04-20 20:48 37.69534 -122.53477 1844 ft 180 kts 129°
2026-04-20 20:48 37.68939 -122.52204 1795 ft 156 kts 129°
2026-04-20 20:49 37.68446 -122.51137 1798 ft 130 kts 130°
2026-04-20 20:49 37.68000 -122.50189 1801 ft 122 kts 131°
2026-04-20 20:49 37.67569 -122.49282 1809 ft 119 kts 133°
2026-04-20 20:49 37.67138 -122.48380 1683 ft 121 kts 133°
2026-04-20 20:50 37.66703 -122.47471 1501 ft 120 kts 133°
2026-04-20 20:50 37.66274 -122.46570 1329 ft 121 kts 129°
2026-04-20 20:50 37.65844 -122.45663 1168 ft 121 kts 128°
2026-04-20 20:50 37.65415 -122.44760 1019 ft 120 kts 128°
2026-04-20 20:51 37.64993 -122.43860 875 ft 119 kts 126°
2026-04-20 20:51 37.64573 -122.42972 782 ft 120 kts 127°
2026-04-20 20:51 37.64140 -122.42079 607 ft 119 kts 125°
2026-04-20 20:51 37.63679 -122.41161 459 ft 125 kts 126°
2026-04-20 20:52 37.63226 -122.40246 321 ft 126 kts 121°
2026-04-20 20:52 37.62790 -122.39143 620 ft 149 kts 117°
2026-04-20 20:52 37.62327 -122.37950 1159 ft 154 kts 121°
2026-04-20 20:52 37.61856 -122.36627 1588 ft 180 kts 123°
2026-04-20 20:53 37.61303 -122.35070 1854 ft 199 kts 123°
2026-04-20 20:53 37.60725 -122.33479 1928 ft 205 kts 117°
2026-04-20 20:53 37.60577 -122.31659 2035 ft 218 kts 82°
2026-04-20 20:53 37.61312 -122.29987 2138 ft 225 kts 46°
2026-04-20 20:54 37.62702 -122.29090 2235 ft 229 kts
2026-04-20 20:54 37.64279 -122.29304 2345 ft 231 kts 334°
2026-04-20 20:54 37.65471 -122.30574 2666 ft 225 kts 293°
2026-04-20 20:54 37.65829 -122.32407 3551 ft 211 kts 257°
2026-04-20 20:55 37.65575 -122.33551 4161 ft 202 kts 234°
2026-04-20 20:55 37.64605 -122.34782 4791 ft 199 kts 204°
2026-04-20 20:55 37.63280 -122.35052 4956 ft 196 kts 171°
2026-04-20 20:55 37.62085 -122.34207 4999 ft 208 kts 136°
2026-04-20 20:56 37.61473 -122.32500 5007 ft 225 kts 102°
2026-04-20 20:56 37.61736 -122.30514 5008 ft 240 kts 69°
2026-04-20 20:56 37.62850 -122.28894 4925 ft 255 kts 45°
2026-04-20 20:56 37.64239 -122.27456 4622 ft 255 kts 40°
2026-04-20 20:57 37.65809 -122.26528 4781 ft 251 kts
2026-04-20 20:57 37.67515 -122.26697 5218 ft 243 kts 338°
2026-04-20 20:57 37.69207 -122.27219 5369 ft 254 kts 349°
2026-04-20 20:57 37.71032 -122.27458 5280 ft 269 kts 352°
2026-04-20 20:58 37.72908 -122.27653 5031 ft 271 kts 353°
2026-04-20 20:58 37.74738 -122.28113 5022 ft 268 kts 331°
2026-04-20 20:58 37.76169 -122.29511 5027 ft 256 kts 301°
2026-04-20 20:58 37.77124 -122.31383 5027 ft 253 kts 293°
2026-04-20 20:59 37.78001 -122.33304 5025 ft 252 kts 293°
2026-04-20 20:59 37.78867 -122.35233 5032 ft 253 kts 292°
2026-04-20 20:59 37.79748 -122.37162 5024 ft 254 kts 292°
2026-04-20 20:59 37.80633 -122.39097 5020 ft 255 kts 293°
2026-04-20 21:00 37.81518 -122.41045 5016 ft 255 kts 293°
2026-04-20 21:00 37.82398 -122.42997 5017 ft 255 kts 293°
2026-04-20 21:00 37.83274 -122.44946 5017 ft 255 kts 292°